Location: �bnet
(46.9957°N, 8.4908°E)
Time: 15:54:48
(UTC+00:00)

Cosmos 1125 Rocket - Pass Details

Date: 11 May 2021
Orbit: 758 x 779 km, 74.0° (Epoch: 18 June)

Event Time Altitude Azimuth Distance (km) Brightness Sun altitude
Exits shadow 23:26:52 67° 132° (SE) 826 3.4 -24.9°
Maximum altitude 23:27:09 69° 108° (ESE) 818 3.5 -24.9°
Drops below altitude 10° 23:32:20 10° 26° (NNE) 2,303 6.8 -24.8°
Sets 23:34:43 0° 25° (NNE) 3,231 7.9 -24.8°
